Regional Weather Roundup
Issued by NWS Cleveland, OH

Home | Current Version | Previous Version | Graphics & Text | Print | Product List | Glossary On
Versions: 1 2 3 4 5 6 7 8 9 10 11 12 13 14 15 16 17 18 19 20 21 22 23 24 25 26 27 28 29 30 31 32 33 34 35 36 37 38 39 40 41 42 43 44 45 46 47 48 49 50
000
ASUS41 KCLE 222212
RWRCLE
OHIO REGIONAL WEATHER ROUNDUP
NATIONAL WEATHER SERVICE WILMINGTON, OH
500 PM EST SUN JAN 22 2017

NOTE: "FAIR" INDICATES FEW OR NO CLOUDS BELOW 12,000 FEET WITH NO
SIGNIFICANT WEATHER AND/OR OBSTRUCTIONS TO VISIBILITY.

OHZ001>008-015>018-024>027-034-035-043-044-222300-
   NORTHWEST OHIO

CITY           SKY/WX    TMP DP  RH WIND       PRES   REMARKS
DEFIANCE       FAIR      55  49  80 NE6       29.56R
FINDLAY        FAIR      56  49  77 NE14      29.54R
TOLEDO EXPRESS FAIR      51  48  89 E9        29.57R
TOLEDO EXEC    FOG       44  44 100 NE10      29.60R VSB<1/4
LIMA           FAIR      59  52  77 NE7       29.53R
$$

OHZ009>014-019>023-028>033-038-089-222300-
   NORTHEAST OHIO

CITY           SKY/WX    TMP DP  RH WIND       PRES   REMARKS
CLE-HOPKINS    CLOUDY    53  46  77 N8        29.59R
CLE-LAKEFRONT  MOCLDY    38  36  92 NE12      29.57R
CUY CO. ARPT   MOCLDY    55  52  88 NE8       29.58R
LORAIN-ELYRIA  FAIR      52  46  80 NE9       29.57R
ASHTABULA      FAIR      49  44  83 NE3       29.60R
AKRON-CANTON   MOCLDY    58  48  69 E10       29.55S
WOOSTER        MOCLDY    56  50  80 E7        29.55S
MANSFIELD      CLOUDY    58  49  72 NE7       29.54S
YOUNGSTOWN     CLOUDY    56  49  77 E6        29.58R
$$

OHZ042-051>053-060>062-070>072-077>081-222300-
  SOUTHWEST OHIO

CITY           SKY/WX    TMP DP  RH WIND       PRES   REMARKS
CINC-COVINGTON MOCLDY    61  49  64 NE15      29.43F
CINC-LUNKEN    FAIR      61  51  70 NE9       29.44F
HAMILTON       FAIR      62  49  62 NE10      29.45F
DAYTON         MOCLDY    59  45  59 NE12      29.49F
WRIGHT-PAT AFB FAIR      60  47  61 N10       29.47F
DAYTON GENERAL FAIR      60  46  59 NE9       29.45F
WILMINGTON     FAIR      58  50  75 NE13      29.45S
$$

OHZ036-037-039>041-045>050-054>059-063>069-073>076-082>088-222300-
  CENTRAL AND SOUTHEAST OHIO

CITY           SKY/WX    TMP DP  RH WIND       PRES   REMARKS
COLUMBUS       MOCLDY    61  47  59 NE10      29.48F
OSU AIRPORT    FAIR      60  48  64 NE10      29.48F
BOLTON FIELD   PTCLDY    61  48  63 NE9       29.48F
RICKENBACK AFB   N/A     58  48  70 NE9       29.46F
NEWARK         FAIR      62  46  55 NE9       29.48F
MARION         FAIR      60  49  66 NE9       29.53S
LANCASTER      FAIR      61  48  62 NE9       29.47F
ZANESVILLE     FAIR      62  46  55 NE7       29.49F
NEW PHILLY     FAIR      61  48  62 NE7       29.53S
$$




USA.gov is the U.S. government's official web portal to all federal, state and local government web resources and services.